Voltar ao catálogo

STARLINK-32022

AtivoComunicaçõesVLEO
NORAD 60149·PAYLOAD·🇺🇸 United States

Lançado Jun 27, 2024 de Cape Canaveral Space Force Station

Loading…

Próximas Passagens (próximas 24 horas)

TLE

AtualizadoSource: CelesTrak SupGP

Época: Sep 14, 2026, 21:33 UTC

1 60149C 24120Q   26257.89840278 -.00065070  00000+0 -19220-2 0  2579
2 60149  53.1580 157.9223 0001351  93.0723 109.1941 15.34430860    17

Acompanhe STARLINK-32022 em tempo real com AllMySat

Download on the App Store